Location: Lancaster
(54.0470°N, 2.8020°W)
Time: 05:55:40
(UTC+00:00)

COSMOS 2428 - Visible Passes

Search period start: 14 February 2016 00:00
Search period end: 24 February 2016 00:00
Orbit: 843 x 859 km, 71.0° (Epoch: 13 February)

Date Brightness Start Highest point End Pass type
(mag) Time Alt. Az. Time Alt. Az. Time Alt. Az.
14 Feb 4.9 19:06:59 10° WNW 19:10:45 17° NNW 19:14:33 10° NNE visible
14 Feb 4.9 20:54:08 10° NNW 20:57:27 15° N 20:57:54 15° NNE visible
14 Feb 5.3 22:38:46 10° NNW 22:39:54 15° NNW 22:39:54 15° NNW visible
15 Feb 4.9 18:54:44 10° WNW 18:58:30 17° NNW 19:02:17 10° NNE visible
15 Feb 4.8 20:41:53 10° NNW 20:45:12 15° N 20:45:59 15° NNE visible
15 Feb 5.2 22:26:31 10° NNW 22:27:59 16° NNW 22:27:59 16° NNW visible
16 Feb 4.9 18:42:29 10° WNW 18:46:15 18° NNW 18:50:02 10° NNE visible
16 Feb 4.8 20:29:37 10° NNW 20:32:57 15° N 20:34:04 15° NNE visible
16 Feb 5.0 22:14:15 10° NNW 22:16:04 18° N 22:16:04 18° N visible
17 Feb 4.8 18:30:13 10° WNW 18:33:59 18° NNW 18:37:47 10° NNE visible
17 Feb 4.8 20:17:22 10° NNW 20:20:42 15° N 20:22:08 14° NNE visible
17 Feb 4.9 22:02:01 10° NNW 22:04:09 20° N 22:04:09 20° N visible
18 Feb 4.8 18:17:58 10° WNW 18:21:44 18° NNW 18:25:31 10° NNE visible
18 Feb 4.8 20:05:07 10° NNW 20:08:26 15° N 20:10:13 14° NNE visible
18 Feb 4.7 21:49:45 10° NNW 21:52:14 21° N 21:52:14 21° N visible
18 Feb 5.5 23:33:55 10° NNW 23:34:14 12° NNW 23:34:14 12° NNW visible
19 Feb 4.8 18:05:42 10° WNW 18:09:29 18° NNW 18:13:16 10° NNE visible
19 Feb 4.8 19:52:52 10° NNW 19:56:11 15° N 19:58:19 13° NNE visible
19 Feb 4.6 21:37:30 10° NNW 21:40:19 23° N 21:40:19 23° N visible
19 Feb 5.4 23:21:39 10° NNW 23:22:20 14° NNW 23:22:20 14° NNW visible
20 Feb 4.8 19:40:36 10° NNW 19:43:55 15° N 19:46:24 12° NE visible
20 Feb 4.4 21:25:14 10° NNW 21:28:25 24° N 21:28:25 24° N visible
20 Feb 5.3 23:09:24 10° NNW 23:10:25 16° NNW 23:10:25 16° NNW visible
21 Feb 4.8 19:28:21 10° NNW 19:31:40 15° N 19:34:30 11° NE visible
21 Feb 4.3 21:12:59 10° NNW 21:16:31 26° N 21:16:31 26° N visible
21 Feb 5.1 22:57:09 10° NNW 22:58:31 18° NNW 22:58:31 18° NNW visible
22 Feb 4.8 19:16:06 10° NNW 19:19:25 15° N 19:22:37 10° NE visible
22 Feb 4.2 21:00:44 10° NNW 21:04:38 27° NNE 21:04:38 27° NNE visible
22 Feb 4.9 22:44:53 10° NNW 22:46:38 21° NNW 22:46:38 21° NNW visible
23 Feb 4.7 19:03:50 10° NNW 19:07:09 15° N 19:10:29 10° NE visible
23 Feb 4.1 20:48:29 10° NNW 20:52:45 28° NNE 20:52:45 28° NNE visible
23 Feb 4.8 22:32:38 10° NNW 22:34:46 24° NNW 22:34:46 24° NNW visible
